Tracking 29892 objects as of 21-Nov-2024
HD Live streaming from Space Station
objects crossing your sky now

FLOCK 1C 8

Track FLOCK 1C 8 now!
10-day predictions
FLOCK 1C 8 is classified as:


NORAD ID: 40040
Int'l Code: 2014-033AG
Perigee: 361.0 km
Apogee: 365.5 km
Inclination: 98.1 °
Period: 91.7 minutes
Semi major axis: 6734 km
RCS: Unknown
Launch date: June 19, 2014
Source: United States (US)
Launch site: Orenburg, Russia (OREN)
Your satellite tracking list
Your tracking list is empty




NASA's NSSDC Master Catalog

Two Line Element Set (TLE):
1 40040U 14033AG  24325.91841959  .00346808  00000-0  26681-2 0  9995
2 40040  98.0814 350.6639 0003367 196.2994 163.8158 15.70971992569171
Source of the keplerian elements: AFSPC